Location: Hancock Field Station
(44.9202°N, 120.4259°W)
Time: 20:55:17
(UTC-07:00)

Nadezhda 4 Rocket - Visible Passes

Search period start: 31 August 2015 00:00
Search period end: 10 September 2015 00:00
Orbit: 951 x 991 km, 82.9° (Epoch: 30 August)

Date Brightness Start Highest point End Pass type
(mag) Time Alt. Az. Time Alt. Az. Time Alt. Az.
02 Sep 6.7 04:58:26 10° ESE 05:02:28 19° E 05:06:47 10° NE visible
03 Sep 6.0 05:20:52 10° SSE 05:26:16 32° E 05:31:49 10° NNE visible
04 Sep 4.9 05:44:07 10° SSE 05:50:11 55° E 05:56:22 10° NNE visible
05 Sep 6.8 04:26:34 10° ESE 04:29:45 15° E 04:33:16 10° NE visible
06 Sep 6.2 04:48:31 10° SE 04:53:30 26° E 04:58:40 10° NNE visible
07 Sep 5.3 05:11:29 10° SSE 05:17:22 44° E 05:23:22 10° NNE visible
08 Sep 6.9 03:55:12 10° E 03:57:03 12° ENE 03:59:18 10° ENE visible
08 Sep 4.3 05:35:06 10° S 05:41:22 76° E 05:47:44 10° NNE visible
09 Sep 6.4 04:16:19 10° SE 04:20:45 21° E 04:25:24 10° NE visible
09 Sep 4.1 05:59:15 10° SSW 06:05:32 66° W 06:11:51 10° N visible
